Location: Marsån
(66.4167°N, 22.2833°E)
Time: 11:27:45
(UTC+00:00)

Cosmos 44 Rocket - Pass Details

Date: 24 February 2024
Orbit: 639 x 745 km, 65.1° (Epoch: 15 April)

Event Time Altitude Azimuth Distance (km) Brightness Sun altitude
Rises 16:42:19 0° 254° (WSW) 3,193 8.7 -8.5°
Reaches altitude 10° 16:44:43 10° 253° (WSW) 2,270 7.5 -8.7°
Maximum altitude 16:49:55 75° 169° (S) 777 3.5 -9.2°
Enters shadow 16:54:35 13° 86° (E) 2,062 5.0 -9.7°
